Left ArrowRight Arrow

38.20091, -84.87328

Hourly Observations for June 13, 2024

Temp ( °F °C ) Dew Point ( °F °C ) Humidity (%) Winds ( mph kmh ) Pressure ( in mb ) Visibility ( mi km ) Precip ( " mm )
12:53 am 00:53 Clear 61 16.1 56 13.3 83 83 Calm 29.97 1015 10 16 0.00 0.00
1:53 am 01:53 Clear 61 16.1 56 13.3 83 83 Calm 29.97 1015 10 16 0.00 0.00
2:53 am 02:53 Clear 60 15.6 56 13.3 86 86 Calm 29.97 1015 10 16 0.00 0.00
3:53 am 03:53 Clear 57 13.9 55 12.8 93 93 Calm 29.97 1015 10 16 0.00 0.00
4:53 am 04:53 Clear 57 13.9 54 12.2 89 89 NNW 3 6 29.97 1015 10 16 0.00 0.00
5:53 am 05:53 Clear 56 13.3 53 11.7 90 90 Calm 29.98 1015 10 16 0.00 0.00
6:53 am 06:53 Sunny 56 13.3 54 12.2 93 93 Calm 29.99 1016 10 16 0.00 0.00
7:53 am 07:53 Sunny 64 17.8 58 14.4 80 80 Calm 30.00 1016 10 16 0.00 0.00
8:53 am 08:53 Sunny 71 21.7 58 14.4 63 63 SSW 3 6 30.00 1016 10 16 0.00 0.00
9:53 am 09:53 Sunny 77 25 60 15.6 56 56 S 3 6 30.00 1016 10 16 0.00 0.00
10:53 am 10:53 Sunny 80 26.7 59 15 49 49 SW 6 9 30.00 1016 10 16 0.00 0.00
11:53 am 11:53 Sunny 81 27.2 57 13.9 44 44 SW 3 6 30.01 1016 10 16 0.00 0.00
12:53 pm 12:53 Sunny 83 28.3 58 14.4 43 43 undefined N/A 29.99 1016 10 16 0.00 0.00
1:53 pm 13:53 Sunny 85 29.4 58 14.4 40 40 SSW 9 15 29.97 1015 10 16 0.00 0.00
2:53 pm 14:53 Sunny 86 30 56 13.3 36 36 S 12 19 29.96 1015 10 16 0.00 0.00
3:53 pm 15:53 Sunny 86 30 56 13.3 36 36 SSW 6 9 29.96 1014 10 16 0.00 0.00
4:53 pm 16:53 Sunny 86 30 57 13.9 37 37 SW 9 15 29.94 1014 10 16 0.00 0.00
5:53 pm 17:53 Sunny 86 30 58 14.4 39 39 SW 8 13 29.94 1014 10 16 0.00 0.00
6:53 pm 18:53 Sunny 86 30 59 15 40 40 SW 8 13 29.92 1013 10 16 0.00 0.00
7:53 pm 19:53 Sunny 84 28.9 61 16.1 46 46 SW 5 7 29.92 1013 10 16 0.00 0.00
8:53 pm 20:53 Sunny 77 25 65 18.3 66 66 SW 3 6 29.91 1013 10 16 0.00 0.00
9:53 pm 21:53 Clear 72 22.2 63 17.2 73 73 Calm 29.92 1013 10 16 0.00 0.00
10:53 pm 22:53 Clear 69 20.6 62 16.7 78 78 Calm 29.93 1014 10 16 0.00 0.00
11:53 pm 23:53 Clear 67 19.4 61 16.1 81 81 Calm 29.94 1014 10 16 0.00 0.00

Powered by Vaisala Xweather